Regional Weather Roundup
Issued by NWS

Home | Current Version | Previous Version | Graphics & Text | Print | Product List | Glossary On
Versions: 1 2 3 4 5 6 7 8 9 10 11 12 13 14 15 16 17 18 19 20 21 22 23 24 25 26 27 28 29 30 31 32 33 34 35 36 37 38 39 40 41 42 43 44 45 46 47 48 49 50
000
ASUS43 KMKX 250200
RWRWI

WISCONSIN REGIONAL WEATHER ROUNDUP
NATIONAL WEATHER SERVICE MILWAUKEE/SULLIVAN WI
900 PM CDT WED AUG 24 2016

NOTE: "FAIR" INDICATES FEW OR NO CLOUDS BELOW 12,000 FEET WITH NO
SIGNIFICANT WEATHER AND/OR OBSTRUCTIONS TO VISIBILITY.

WIZ001-002-006>008-014>016-023>028-250300-
NORTHWEST WISCONSIN

CITY           SKY/WX    TMP DP  RH WIND       PRES   REMARKS
SUPERIOR ARPT  CLOUDY    69  58  68 W6        29.90R
ASHLAND        CLOUDY    67  57  70 SW8       29.89R
HAYWARD        PTCLDY    68  57  68 SW6       29.95R
SIREN          CLOUDY    67  57  69 W6        29.95R
CUMBERLAND     CLOUDY    64  54  68 W8        29.96R
RICE LAKE      CLOUDY    66  56  70 W5        29.97R
CHETEK         NOT AVBL
LADYSMITH      MOCLDY    68  58  71 W5        29.96R
EAU CLAIRE     NOT AVBL
MENOMONIE      PTCLDY    70  59  69 W5        29.97R
NEW RICHMOND   PTCLDY    65  56  72 W7        29.98R
OSCEOLA        CLOUDY    66  58  75 W5        29.99S
$$

WIZ003>005-009-010-017-018-250300-
NORTH CENTRAL WISCONSIN

CITY           SKY/WX    TMP DP  RH WIND       PRES   REMARKS
MANITOWISH WTR NOT AVBL
ARBOR VITAE    MOCLDY    69  65  86 W3        29.93R
WOODRUFF       MOCLDY    69  65  86 W3        29.93R
RHINELANDER    PTCLDY    65  65 100 W5        29.94R
EAGLE RIVER    PTCLDY    64  64 100 CALM      29.91S
LAND O LAKES   PTCLDY    65  64  97 CALM      29.92S FOG
PHILLIPS       CLOUDY    65  60  84 CALM      29.94R
TOMAHAWK       PTCLDY    65  63  93 CALM      29.94R
MEDFORD        PTCLDY    67  67 100 W5        29.95R
MERRILL        PTCLDY    67  65  93 W5        29.95R
$$

WIZ029-030-035-036-043>047-250300-
CENTRAL WISCONSIN

CITY           SKY/WX    TMP DP  RH WIND       PRES   REMARKS
WAUSAU         PTCLDY    69  65  86 W6        29.94R
MOSINEE        CLEAR     66  66 100 SW6       29.96R
MARSHFIELD     PTCLDY    69  65  86 W6        29.95R
STEVENS POINT  CLEAR     69  66  90 W3        29.95R
WAUPACA        PTCLDY    74  72  93 CALM      29.93S
WAUTOMA        PTCLDY    71  69  93 W5        29.95R
WISC RAPIDS    CLEAR     70  68  93 W6        29.97R
CAMP DOUGLAS   NOT AVBL
$$

WIZ011>013-019>022-031-037>040-048>050-250300-
NORTHEAST WISCONSIN

CITY           SKY/WX    TMP DP  RH WIND       PRES   REMARKS
ANTIGO         CLEAR     66  64  95 CALM      29.94R
SHAWANO        CLEAR     73  66  81 CALM      29.92R
OCONTO         NOT AVBL
STURGEON BAY   PTCLDY    72  68  87 SW7       29.91R
GREEN BAY      CLEAR     71  70  96 SW3       29.91S
MANITOWOC      NOT AVBL
APPLETON       MOCLDY    70  70 100 VRB3      29.92R
CLINTONVILLE   CLEAR     70  66  88 W3        29.92S
OSHKOSH        CLEAR     73  69  87 SW3       29.93R
$$

WIZ032>034-041-042-053>061-250300-
SOUTHWEST WISCONSIN

CITY           SKY/WX    TMP DP  RH WIND       PRES   REMARKS
LA CROSSE      CLOUDY    74  32  21 W6        29.96R
SPARTA         PTCLDY    69  68  97 CALM      29.97R
VIROQUA        CLOUDY    70  68  95 W3        29.99R
BOSCOBEL       MOCLDY    75  72  90 CALM      29.95R
PRAIRIE DU CHI CLOUDY    76  69  81 NW6       29.95R
PLATTEVILLE    CLOUDY    75  74  96 W7        29.97R
$$

WIZ056-057-062-063-064-067-068-250300-
SOUTH CENTRAL WISCONSIN

CITY           SKY/WX    TMP DP  RH WIND       PRES   REMARKS
REEDSBURG      NOT AVBL
BARABOO/DELLS  PTCLDY    74  70  86 CALM      29.95S
LONE ROCK      NOT AVBL
MINERAL POINT  CLOUDY    77  72  83 W6        29.96S
MADISON        MOCLDY    76  75  97 CALM      29.94R FOG
MIDDLETON      PTCLDY    75  75 100 CALM      29.95R
WATERTOWN      CLOUDY    76  76 100 CALM      29.93S
MONROE         CLOUDY    77  72  83 W7        29.96R
JANESVILLE     PTCLDY    79  73  83 SW6       29.93S HX  82
$$

WIZ051-052-058>065-066-070>072-250300-
SOUTHEAST WISCONSIN

CITY           SKY/WX    TMP DP  RH WIND       PRES   REMARKS
MILWAUKEE      PTCLDY    81  71  71 CALM      29.93S HX  85
WAUKESHA       MOCLDY    73  70  88 CALM      29.95S
MILWAUKEE/TIMM MOCLDY    79  70  73 CALM      29.94R HX  81
RACINE         CLEAR     77  72  84 CALM      29.95S
BURLINGTON     PTCLDY    72  70  94 SW3       29.94S
KENOSHA        CLEAR     76  71  85 SW6       29.94S
FOND DU LAC    CLOUDY    72  71  97 SW5       29.94R
SHEBOYGAN      CLEAR     71  68  90 W3        29.93R
WEST BEND      PTCLDY    73  70  88 NW3       29.94S
JUNEAU         MOCLDY    74  72  92 CALM      29.95R
$$

LSZ147-162-250300-
LAKE SUPERIOR

STATION/POSITION TIME  TEMP    WIND        PRES    WAVE
                       AIR SEA DIR/SP/G            HT/PER
                 (UTC) (F)     (DEG/KT/KT) (MB)    (FT/S)
W MID LAKE BUOY  0050   72 69  240/ 14/ 16 1008.3R   2/ 4
DEVILS ISLAND    0100   71     250/ 14/ 16 1010.2R
PORT WING        0140   73     240/  6/ 10 1011.9R
SAXON HARBOR     0140   71     200/  6/  8 1011.2S
$$

LMZ867-665-643>646-250300-
LAKE MICHIGAN

STATION/POSITION TIME  TEMP    WIND        PRES    WAVE
                       AIR SEA DIR/SP/G            HT/PER
                 (UTC) (F)     (DEG/KT/KT) (MB)    (FT/S)
CHAMBERS ISLAND  0100   74     200/  5/  9 1011.2S
S GREEN BAY BUOY 0100   75 73  220/  8/ 10 1011.7R
N MID LAKE BUOY  0050   71 70  230/ 12/ 14 1010.3R   6/ 7
NORTHPORT PIER   0100   73     210/  3/  6 1011.2R
SISTER BAY       0037   75     230/  8/  9   N/A
ALGOMA LAKESHORE 0000          260/  8/ 10   N/A
KEWAUNEE LAKESHO 0100   76     250/  4/  5 1012.2R
SHEBOYGAN LAKESH 0100   76     340/  3/  4 1012.3R
PORT WASHINGTON  0100   65     280/  2/ 11 1013.9R
ATWATER BUOY     0100   76 45  270/  6/  8   N/A
MILWAUKEE LAKESH 0110   82     270/  5/  6   N/A
S MID LAKE BUOY  0050   75 75  180/  8/ 10 1012.8R   2/ 5
KENOSHA   LAKESH 0100   82     240/  4/  8 1013.2R
$$

TC  - TEMPERATURE IN CELSIUS
VSB - VISIBILITY IN STATUTE MILES
WCI - WIND CHILL INDEX
HX  - HEAT INDEX





USA.gov is the U.S. government's official web portal to all federal, state and local government web resources and services.